Wind_Speed
14 14 15 16 16 17 18 20 21 19 18 16 16 16 16 15 16 17 16 15 15 12 15 14 18 25 23 20 17 16 15 14 14 13 13 13 13 13 13 13 13 14 14
15 15 15 14 16 16 18 20 22 20 19 17 17 17 15 14 14 17 16 16 17 17 21 23 26 24 22 21 17 16 14 12 13 13 14 13 13 13 13 13 14 14 15
11 13 13 14 15 16 17 19 20 21 19 18 17 16 14 14 13 14 13 12 19 18 19 23 24 22 20 17 15 14 13 12 14 14 14 14 14 14 14 14 14 14 15
9 11 11 13 14 15 16 18 19 19 18 18 17 16 14 13 13 13 12 17 16 17 16 18 19 19 18 16 14 13 12 13 14 14 13 14 14 15 14 15 14 13 13
8 9 11 11 14 15 16 17 18 19 18 17 17 16 16 15 14 12 13 15 14 16 16 16 16 17 15 14 14 12 12 13 13 13 12 12 14 14 14 15 13 13 12
8 10 10 11 14 16 16 17 17 17 17 17 16 16 16 15 15 14 14 14 14 15 16 15 14 13 12 12 11 11 11 12 11 12 12 11 13 14 14 14 13 13 13
8 10 12 13 15 16 15 16 16 17 16 17 17 17 17 16 16 16 15 14 14 14 15 15 14 12 11 10 9 10 9 8 9 9 10 10 11 10 12 13 13 12 12
6 9 12 14 16 16 15 14 15 15 16 16 17 17 17 16 16 15 16 14 14 13 13 13 13 11 9 9 8 8 8 5 6 7 9 9 9 8 10 12 12 11 11
8 8 10 12 14 13 14 13 13 14 15 15 16 14 13 15 16 16 17 15 13 12 11 11 11 10 10 8 8 7 6 4 6 7 7 8 7 9 9 9 10 10 10
8 7 8 9 11 13 13 12 12 13 14 15 16 14 12 15 16 18 17 15 13 10 9 9 10 9 8 7 8 6 6 5 5 6 6 6 6 5 2 11 8 9 9
6 7 7 8 9 9 11 11 9 12 14 15 15 16 18 18 16 16 15 13 12 10 10 9 8 9 8 5 2 7 6 6 5 5 5 5 5 4 3 3 8 8 10
7 7 6 6 8 8 9 10 9 9 14 15 15 16 16 16 14 14 13 12 11 11 10 9 7 7 7 6 5 6 4 6 5 3 3 3 2 3 4 5 6 9 11
5 6 6 6 6 8 9 8 9 9 12 16 14 14 12 12 10 10 10 10 8 8 8 8 7 8 7 7 7 4 3 5 7 4 4 3 1 2 4 5 7 8 15
4 5 4 6 5 7 9 9 9 9 12 15 13 14 14 10 11 8 7 7 7 6 5 5 5 5 6 4 3 2 4 6 4 8 1 2 2 1 2 4 6 8 11
0 2 4 5 6 6 7 10 9 9 11 13 10 9 9 9 8 7 5 4 6 5 7 6 6 5 6 4 3 4 5 4 5 3 6 3 1 1 2 3 5 7 9
2 3 3 4 7 7 7 7 9 8 10 12 12 10 8 12 8 6 4 5 5 5 5 6 6 4 4 6 6 4 3 4 2 4 5 5 3 1 2 2 2 5 6
4 5 5 7 7 8 8 8 8 9 9 10 11 10 9 11 7 6 5 5 4 3 2 3 4 3 3 5 5 2 6 4 5 4 3 5 5 3 2 2 3 4 5
3 7 8 9 11 11 10 10 9 8 8 7 9 10 9 8 7 6 5 4 3 2 1 1 2 3 5 3 2 7 8 5 2 4 2 2 3 6 4 5 5 5 2
5 5 14 15 17 13 10 11 11 9 7 8 8 9 8 7 7 7 5 4 4 4 3 4 3 5 5 9 4 3 8 6 5 4 2 1 2 5 4 6 7 9 10
4 5 10 4 13 12 10 9 10 11 9 8 8 9 7 7 8 7 6 6 6 7 7 7 5 4 2 4 6 2 3 3 6 7 7 6 4 1 6 8 6 6 10
7 3 4 3 8 13 10 8 7 6 8 10 9 8 7 8 8 5 4 4 6 5 5 6 7 3 3 9 4 3 5 3 7 8 8 9 12 2 1 4 3 6 9
7 2 3 3 8 11 10 8 6 5 5 6 7 7 7 7 6 4 2 4 4 4 6 6 7 6 7 6 7 3 5 6 7 6 6 12 7 9 4 4 4 3 5
6 4 3 2 6 9 9 9 7 8 6 6 5 5 5 5 5 4 2 3 5 4 6 7 8 9 10 11 12 8 9 6 6 6 6 11 10 8 7 5 4 3 3
7 5 5 4 3 5 8 10 9 7 6 7 7 7 5 5 5 5 5 4 6 8 7 4 6 10 12 14 13 11 13 10 10 8 8 9 11 10 7 5 5 4 3
9 4 4 6 6 4 6 6 6 7 8 10 10 8 8 7 6 7 8 9 9 8 8 9 10 11 11 12 15 13 11 14 13 12 9 12 9 6 9 7 7 5 4
6 4 2 4 4 5 4 2 3 4 6 9 12 12 10 9 10 9 10 10 12 11 11 10 10 10 12 11 14 14 14 14 16 18 14 10 10 10 12 9 8 7 6
Wind_Direction
102 105 98 91 90 96 91 91 93 94 96 95 91 88 87 90 85 90 88 83 80 76 77 92 126 122 116 117 116 119 120 122 120 119 118 113 106 109 112 113 113 112 113
107 105 104 96 93 97 94 91 94 95 95 95 95 93 93 94 89 89 89 88 84 86 85 93 105 105 110 115 123 123 123 121 121 117 113 107 106 106 110 116 116 114 113
107 109 107 102 101 100 100 95 95 98 97 95 93 96 95 96 96 95 97 103 81 91 95 98 102 108 112 111 114 118 121 124 120 115 110 107 103 104 108 111 116 117 116
119 113 106 102 106 107 106 105 100 101 99 97 92 93 96 96 95 97 86 92 90 88 96 103 103 112 110 111 108 110 119 118 111 105 107 110 111 110 111 112 115 123 125
121 126 116 107 110 109 107 109 110 107 107 104 102 98 96 98 103 100 97 95 92 86 91 100 104 108 112 111 115 114 111 106 107 111 114 112 115 113 113 114 120 122 126
126 133 124 114 120 119 111 109 112 116 115 116 112 107 105 100 98 103 104 101 98 92 92 106 113 114 109 107 106 111 112 114 119 122 120 115 119 118 119 120 122 128 130
127 134 135 122 122 120 115 111 112 121 124 124 120 117 112 111 108 105 105 106 104 102 97 108 108 113 107 108 106 103 129 126 129 130 122 119 116 124 126 123 124 128 132
107 131 143 133 124 119 116 113 115 120 125 124 120 120 118 116 111 108 110 113 113 110 108 109 110 114 111 110 109 104 139 142 141 134 135 134 131 132 131 132 130 132 135
110 113 139 143 134 128 126 123 115 122 123 123 120 116 117 124 115 110 114 113 110 108 107 106 106 106 105 105 111 112 111 142 162 160 154 147 151 128 149 142 138 137 140
117 112 121 138 139 133 130 127 120 122 126 124 122 116 114 130 119 112 112 114 113 106 99 95 99 103 102 102 115 117 107 109 152 173 168 162 156 151 171 151 142 151 152
130 124 121 132 134 138 133 126 121 119 135 134 128 121 119 125 121 120 117 117 114 109 103 99 101 99 101 103 61 117 91 87 109 160 171 191 188 187 212 181 157 167 168
152 139 134 131 132 139 141 136 131 128 143 145 137 131 128 129 126 123 119 116 118 116 111 96 98 104 104 85 82 104 124 140 100 109 149 177 213 238 233 250 189 193 189
163 156 148 136 139 140 144 147 140 134 147 154 147 137 128 132 133 124 117 116 113 113 101 109 100 103 107 108 84 116 160 159 177 120 108 106 172 250 242 234 229 226 215
204 181 178 155 146 147 148 150 147 134 147 158 161 157 145 134 133 122 100 97 108 103 105 106 101 85 97 92 75 94 73 106 151 200 184 109 59 273 237 231 241 249 261
284 237 202 183 174 164 158 160 163 151 152 163 162 141 139 152 139 125 114 103 106 91 86 74 104 87 56 71 70 100 106 92 66 206 222 226 85 356 266 235 229 255 268
301 281 236 218 198 195 174 168 166 169 167 166 161 156 143 161 148 138 122 128 130 114 76 71 70 71 57 116 52 72 157 15 338 357 217 203 227 255 240 223 246 238 250
297 302 275 233 229 213 196 189 175 174 182 183 172 162 154 161 164 153 146 130 167 173 95 61 60 27 227 168 154 71 315 298 21 42 181 217 235 243 223 233 216 233 223
291 286 279 248 226 227 209 205 198 185 176 183 193 174 168 173 185 184 185 178 177 219 243 71 18 305 337 70 243 347 5 266 15 23 167 157 242 230 241 259 215 210 176
305 273 264 240 207 212 214 211 209 206 203 197 200 180 172 187 201 206 209 214 224 238 254 282 309 333 297 342 78 41 9 252 275 303 302 300 227 235 282 267 245 238 243
339 318 298 321 175 196 202 219 216 211 204 208 207 195 188 201 205 203 213 230 231 243 241 258 277 302 47 328 338 21 312 278 258 279 269 139 69 65 278 252 247 249 237
11 356 359 177 168 190 197 215 223 217 186 196 210 210 197 202 206 196 203 217 226 239 258 269 260 226 236 227 291 304 303 310 277 259 305 265 257 295 28 237 251 245 242
3 29 43 96 159 173 189 201 218 207 198 200 194 190 192 208 215 187 193 208 220 246 271 275 265 263 223 242 255 252 301 291 316 231 254 286 281 243 332 271 259 254 239
354 28 80 69 135 173 190 202 211 226 224 233 229 224 213 209 246 241 227 241 242 249 296 272 270 279 256 236 249 261 282 278 319 249 276 289 291 215 280 280 274 271 243
8 352 47 65 110 174 196 222 218 234 239 250 251 251 237 235 234 245 236 247 242 253 277 278 271 262 274 263 252 262 266 257 278 300 285 311 264 261 270 269 259 262 247
359 346 73 71 74 112 186 210 227 235 252 250 250 251 249 251 252 248 244 244 238 243 255 253 251 268 272 252 248 253 261 265 269 281 282 311 275 256 265 258 259 249 240
325 322 119 92 78 74 89 128 215 232 247 254 255 250 251 256 255 250 240 237 239 236 245 258 243 246 257 251 246 251 257 269 274 268 272 296 273 252 266 246 266 261 239
Height
5907 5908 5908 5907 5908 5907 5907 5905 5904 5905 5905 5906 5907 5908 5908 5909 5910 5910 5909 5910 5911 5909 5908 5905 5906 5910 5915 5917 5921 5923 5924 5925 5927 5928 5929 5929 5929 5930 5932 5932 5933 5933 5933
5907 5909 5909 5910 5910 5909 5909 5907 5906 5907 5907 5908 5909 5910 5911 5912 5912 5912 5911 5912 5913 5912 5912 5911 5912 5915 5918 5921 5924 5925 5927 5928 5929 5931 5931 5932 5932 5933 5933 5934 5934 5935 5936
5909 5910 5910 5911 5911 5911 5910 5910 5909 5909 5909 5911 5912 5912 5913 5914 5914 5914 5914 5914 5916 5916 5916 5917 5918 5919 5921 5924 5927 5928 5929 5931 5932 5932 5934 5934 5935 5935 5936 5936 5937 5937 5939
5910 5910 5911 5911 5912 5913 5912 5912 5912 5912 5912 5912 5913 5915 5915 5915 5916 5917 5917 5918 5918 5918 5919 5920 5921 5923 5925 5927 5929 5931 5931 5933 5933 5935 5936 5936 5937 5937 5937 5938 5939 5940 5941
5910 5912 5912 5913 5913 5914 5914 5914 5914 5914 5914 5914 5915 5916 5917 5918 5919 5920 5920 5920 5919 5921 5922 5923 5924 5926 5927 5928 5930 5932 5933 5934 5935 5937 5938 5938 5939 5939 5940 5941 5941 5942 5943
5911 5912 5914 5914 5914 5915 5915 5915 5915 5916 5916 5916 5917 5918 5919 5920 5921 5922 5922 5922 5923 5924 5924 5925 5926 5927 5929 5930 5932 5933 5934 5936 5937 5938 5939 5939 5940 5941 5942 5942 5943 5944 5945
5913 5913 5915 5916 5916 5915 5916 5916 5917 5917 5918 5918 5919 5920 5920 5921 5923 5924 5925 5926 5925 5926 5927 5927 5928 5930 5931 5932 5933 5935 5936 5937 5938 5939 5940 5940 5941 5942 5943 5943 5944 5945 5946
5914 5914 5916 5917 5917 5916 5916 5917 5918 5919 5919 5920 5920 5921 5922 5923 5924 5925 5926 5927 5928 5929 5929 5929 5930 5931 5933 5934 5935 5936 5937 5938 5938 5939 5940 5941 5942 5943 5944 5945 5945 5946 5947
5914 5915 5916 5918 5918 5918 5918 5918 5919 5920 5921 5921 5922 5923 5924 5924 5925 5927 5928 5929 5929 5930 5931 5931 5933 5933 5934 5935 5936 5936 5937 5938 5938 5939 5940 5941 5942 5943 5945 5945 5946 5947 5948
5914 5916 5916 5918 5919 5919 5919 5919 5920 5920 5921 5922 5923 5924 5924 5926 5927 5928 5929 5930 5930 5931 5931 5932 5934 5934 5935 5935 5935 5935 5936 5938 5939 5940 5941 5942 5943 5944 5944 5945 5947 5948 5949
5915 5916 5917 5918 5919 5919 5919 5920 5920 5920 5921 5923 5924 5925 5926 5928 5929 5929 5929 5931 5931 5932 5932 5933 5934 5935 5936 5935 5933 5932 5937 5938 5939 5940 5941 5942 5942 5943 5944 5945 5946 5947 5949
5915 5916 5917 5918 5918 5919 5920 5920 5920 5921 5921 5924 5925 5926 5927 5929 5930 5931 5931 5931 5932 5932 5933 5933 5934 5935 5936 5936 5936 5937 5937 5939 5939 5940 5940 5941 5942 5942 5943 5944 5945 5946 5947
5916 5916 5917 5918 5918 5918 5920 5921 5921 5921 5922 5923 5925 5927 5928 5930 5931 5933 5933 5933 5933 5933 5934 5934 5935 5935 5936 5936 5937 5937 5937 5938 5939 5940 5940 5941 5940 5941 5942 5943 5945 5944 5946
5918 5918 5918 5918 5919 5919 5920 5921 5922 5922 5922 5923 5925 5927 5928 5930 5932 5934 5935 5935 5935 5935 5935 5935 5935 5936 5936 5936 5936 5937 5937 5938 5938 5939 5940 5940 5940 5941 5941 5942 5943 5944 5944
5918 5918 5918 5918 5919 5920 5920 5921 5922 5923 5923 5924 5925 5926 5928 5930 5931 5934 5935 5936 5936 5936 5935 5935 5935 5936 5936 5937 5936 5936 5936 5937 5938 5938 5939 5940 5940 5940 5941 5941 5941 5942 5943
5918 5918 5919 5918 5918 5920 5921 5921 5922 5924 5925 5924 5925 5927 5928 5930 5931 5933 5935 5936 5937 5937 5936 5935 5936 5936 5936 5936 5936 5935 5934 5937 5938 5937 5937 5938 5939 5940 5941 5941 5941 5941 5942
5917 5917 5918 5918 5918 5919 5921 5922 5922 5924 5925 5926 5925 5927 5928 5930 5931 5933 5934 5935 5936 5937 5937 5936 5936 5935 5933 5932 5935 5932 5934 5936 5937 5937 5936 5937 5938 5939 5940 5940 5940 5941 5941
5916 5915 5915 5916 5916 5918 5919 5921 5922 5923 5925 5926 5927 5927 5928 5930 5931 5933 5934 5935 5936 5937 5937 5937 5936 5934 5932 5934 5932 5936 5935 5935 5936 5936 5936 5937 5937 5938 5938 5939 5939 5940 5940
5914 5914 5910 5907 5911 5915 5918 5919 5921 5922 5924 5926 5927 5927 5927 5929 5930 5931 5932 5934 5935 5935 5936 5936 5936 5934 5935 5935 5933 5934 5934 5934 5934 5935 5935 5935 5936 5936 5936 5936 5938 5938 5938
5912 5911 5907 5905 5908 5913 5916 5917 5919 5921 5922 5924 5926 5927 5927 5928 5929 5929 5930 5932 5933 5934 5934 5935 5935 5935 5935 5934 5934 5931 5933 5933 5933 5933 5933 5930 5934 5934 5934 5935 5936 5936 5936
5910 5910 5909 5908 5908 5911 5914 5916 5917 5918 5920 5922 5925 5926 5927 5927 5928 5928 5929 5929 5931 5932 5932 5933 5933 5933 5932 5932 5934 5932 5932 5932 5932 5932 5931 5928 5932 5932 5932 5934 5934 5935 5934
5910 5910 5909 5909 5908 5910 5912 5914 5915 5916 5918 5921 5923 5924 5925 5927 5927 5927 5928 5928 5929 5929 5930 5930 5931 5931 5931 5932 5932 5932 5932 5932 5931 5930 5930 5930 5926 5930 5931 5932 5932 5933 5933
5910 5910 5909 5908 5909 5910 5912 5913 5914 5914 5915 5917 5920 5922 5923 5924 5925 5925 5926 5926 5926 5927 5928 5927 5928 5929 5929 5930 5930 5931 5931 5931 5930 5929 5929 5929 5928 5928 5930 5930 5931 5931 5931
5912 5910 5908 5908 5907 5908 5910 5911 5912 5913 5913 5915 5917 5919 5920 5921 5923 5923 5924 5924 5925 5925 5926 5925 5926 5927 5927 5928 5928 5929 5929 5929 5929 5929 5928 5928 5927 5928 5928 5929 5929 5929 5930
5913 5912 5909 5908 5907 5907 5908 5909 5910 5910 5912 5913 5915 5916 5917 5919 5920 5921 5922 5922 5922 5923 5923 5923 5923 5923 5924 5924 5925 5927 5927 5928 5928 5927 5927 5927 5926 5926 5926 5926 5927 5928 5928
5913 5912 5911 5908 5908 5908 5908 5909 5909 5909 5910 5911 5912 5913 5915 5916 5916 5917 5918 5919 5919 5919 5919 5920 5919 5920 5920 5920 5921 5923 5924 5925 5925 5925 5925 5924 5924 5922 5923 5922 5924 5926 5927